Weather History for Big Bear City, CA

Change the Weather History Date:

Tuesday, May 6, 2014

  Actual Average (KBUO) Record (KBUO)
Temperature  
Mean Temperature 36 °F -  
Max Temperature 41 °F 73 °F 89 °F (1997)
Min Temperature 32 °F 48 °F 48 °F (1999)
Degree Days  
Heating Degree Days 28    
Moisture  
Dew Point 29 °F    
Average Humidity 80    
Maximum Humidity 100    
Minimum Humidity 56    
Precipitation  
Precipitation 0.04 in - - ()
Sea Level Pressure  
Sea Level Pressure 29.84 in    
Wind  
Wind Speed 10 mph (WSW)    
Max Wind Speed 20 mph    
Max Gust Speed 31 mph    
Visibility 9 miles    
Events Snow    
Averages and records for this station are not official NWS values.
T = Trace of Precipitation, MM = Missing Value Source: NWS Daily Summary

Daily Weather History Graph

Daily Weather History Graph

Search for Another Location

Airport:

Trip Planner

Search our weather history database for the weather conditions in past years. The results will help you decide how hot, cold, wet, or windy it might be!

Date:

Astronomy

May. 06, 2014 Rise Set
Actual Time 5:52 AM PDT 7:35 PM PDT
Civil Twilight 5:25 AM PDT 8:02 PM PDT
Nautical Twilight 4:53 AM PDT 8:35 PM PDT
Astronomical Twilight 4:18 AM PDT 9:10 PM PDT
Moon 12:09 PM PDT (5/6) 1:00 AM PDT (5/6)
Length of Visible Light 14h 37m
Length of Day
13h 42m
Waxing Crescent, 47% of the Moon is Illuminated
May 6
Waxing Crescent
May 6
First Quarter
May 14
Full
May 21
Last Quarter
May 28
New

Hourly Weather History & Observations

Time (PDT) Temp. Windchill Dew Point Humidity Pressure Visibility Wind Dir Wind Speed Gust Speed Precip Events Conditions
12:15 AM 37.4 °F 34.9 °F 24.8 °F 60% 29.94 in 10.0 mi SW 3.5 mph - N/A   Clear
12:35 AM 37.4 °F 30.8 °F 26.6 °F 65% 29.93 in 10.0 mi SW 9.2 mph - N/A   Clear
4:55 AM 33.8 °F 24.3 °F 30.2 °F 87% 29.81 in 10.0 mi WSW 13.8 mph 25.3 mph N/A   Mostly Cloudy
5:15 AM 33.8 °F 24.8 °F 30.2 °F 87% 29.81 in 10.0 mi WSW 12.7 mph 31.1 mph N/A   Scattered Clouds
5:35 AM 33.8 °F 24.3 °F 30.2 °F 87% 29.81 in 10.0 mi WSW 13.8 mph 21.9 mph N/A   Mostly Cloudy
5:55 AM 33.8 °F 28.6 °F 30.2 °F 87% 29.82 in 10.0 mi WSW 5.8 mph 25.3 mph N/A   Mostly Cloudy
6:15 AM 33.8 °F 23.9 °F 30.2 °F 87% 29.83 in 10.0 mi SW 15.0 mph 19.6 mph N/A   Overcast
7:15 AM 33.8 °F 27.0 °F 28.4 °F 81% 29.84 in 10.0 mi WSW 8.1 mph - N/A   Overcast
7:35 AM 33.8 °F 25.8 °F 28.4 °F 81% 29.84 in 10.0 mi WSW 10.4 mph 18.4 mph N/A   Mostly Cloudy
7:55 AM 33.8 °F 24.3 °F 26.6 °F 75% 29.84 in 10.0 mi WSW 13.8 mph 18.4 mph N/A   Scattered Clouds
8:15 AM 35.6 °F 27.1 °F 26.6 °F 70% 29.84 in 10.0 mi West 12.7 mph 21.9 mph N/A   Clear
8:35 AM 35.6 °F 27.5 °F 26.6 °F 70% 29.83 in 10.0 mi WSW 11.5 mph 17.3 mph N/A   Clear
8:55 AM 35.6 °F 27.1 °F 26.6 °F 70% 29.83 in 10.0 mi WSW 12.7 mph 16.1 mph N/A   Clear
9:15 AM 35.6 °F 28.6 °F 28.4 °F 75% 29.83 in 10.0 mi WSW 9.2 mph 19.6 mph N/A   Clear
9:35 AM 37.4 °F 29.8 °F 26.6 °F 65% 29.82 in 10.0 mi WSW 11.5 mph 18.4 mph N/A   Clear
9:55 AM 37.4 °F 28.9 °F 24.8 °F 60% 29.82 in 10.0 mi WSW 13.8 mph 21.9 mph N/A   Clear
10:15 AM 39.2 °F 31.2 °F 26.6 °F 61% 29.82 in 10.0 mi WSW 13.8 mph - N/A   Clear
10:35 AM 39.2 °F 30.5 °F 28.4 °F 65% 29.82 in 10.0 mi West 16.1 mph - N/A   Clear
10:55 AM 41.0 °F 31.9 °F 28.4 °F 61% 29.82 in 10.0 mi West 19.6 mph 25.3 mph N/A   Clear
11:15 AM 39.2 °F 32.0 °F 26.6 °F 61% 29.83 in 10.0 mi WSW 11.5 mph 21.9 mph N/A   Clear
11:35 AM 39.2 °F 32.5 °F 26.6 °F 61% 29.83 in 10.0 mi SW 10.4 mph 25.3 mph N/A   Clear
11:55 AM 39.2 °F 31.2 °F 24.8 °F 56% 29.83 in 10.0 mi WSW 13.8 mph 24.2 mph N/A   Clear
12:15 PM 39.2 °F 30.5 °F 26.6 °F 61% 29.83 in 10.0 mi WSW 16.1 mph 25.3 mph N/A   Scattered Clouds
12:35 PM 41.0 °F 34.3 °F 26.6 °F 57% 29.83 in 10.0 mi SW 11.5 mph 23.0 mph N/A   Scattered Clouds
1:15 PM 37.4 °F 28.9 °F 26.6 °F 65% 29.84 in 10.0 mi SW 13.8 mph 21.9 mph N/A   Mostly Cloudy
1:35 PM 37.4 °F 30.3 °F 26.6 °F 65% 29.84 in 10.0 mi WSW 10.4 mph 20.7 mph N/A   Overcast
1:55 PM 35.6 °F 27.5 °F 26.6 °F 70% 29.85 in 10.0 mi SW 11.5 mph 20.7 mph N/A   Overcast
2:15 PM 37.4 °F 30.3 °F 26.6 °F 65% 29.84 in 10.0 mi SSW 10.4 mph 16.1 mph N/A   Overcast
2:35 PM 37.4 °F 30.3 °F 26.6 °F 65% 29.84 in 10.0 mi SW 10.4 mph 23.0 mph N/A   Mostly Cloudy
3:15 PM 37.4 °F 30.3 °F 28.4 °F 70% 29.83 in 10.0 mi WSW 10.4 mph 21.9 mph N/A   Overcast
3:35 PM 37.4 °F 28.2 °F 28.4 °F 70% 29.82 in 10.0 mi West 16.1 mph 20.7 mph N/A   Overcast
3:55 PM 35.6 °F 28.6 °F 28.4 °F 75% 29.82 in 10.0 mi WSW 9.2 mph - N/A   Overcast
4:15 PM 33.8 °F 26.4 °F 32.0 °F 93% 29.82 in 1.2 mi West 9.2 mph 21.9 mph N/A Snow Light Snow
4:35 PM 32.0 °F 25.6 °F 32.0 °F 100% 29.82 in 0.5 mi West 6.9 mph - 0.01 in Snow Snow
4:55 PM 32.0 °F 27.5 °F 32.0 °F 100% 29.82 in 1.0 mi SW 4.6 mph - 0.03 in Snow Light Snow
5:15 PM 32.0 °F 28.7 °F 32.0 °F 100% 29.81 in 0.8 mi WSW 3.5 mph - N/A Snow Snow
5:35 PM 32.0 °F 24.8 °F 32.0 °F 100% 29.82 in 1.5 mi WSW 8.1 mph 16.1 mph 0.01 in Snow Light Snow
5:55 PM 32.0 °F 25.6 °F 32.0 °F 100% 29.83 in 10.0 mi SW 6.9 mph - 0.01 in   Overcast
6:15 PM 32.0 °F 25.6 °F 32.0 °F 100% 29.82 in 10.0 mi WSW 6.9 mph - N/A   Overcast
6:35 PM 32.0 °F 23.6 °F 30.2 °F 93% 29.82 in 10.0 mi SW 10.4 mph 17.3 mph N/A   Overcast
6:55 PM 33.8 °F 25.3 °F 30.2 °F 87% 29.83 in 10.0 mi West 11.5 mph 21.9 mph N/A   Overcast
7:15 PM 32.0 °F 24.2 °F 30.2 °F 93% 29.84 in 10.0 mi WSW 9.2 mph 18.4 mph N/A   Mostly Cloudy
7:35 PM 32.0 °F 23.0 °F 30.2 °F 93% 29.84 in 10.0 mi West 11.5 mph 18.4 mph N/A   Scattered Clouds
7:55 PM 32.0 °F 20.5 °F 30.2 °F 93% 29.84 in 10.0 mi West 18.4 mph 23.0 mph N/A   Scattered Clouds
8:15 PM 32.0 °F 22.5 °F 30.2 °F 93% 29.85 in 10.0 mi West 12.7 mph 19.6 mph N/A   Mostly Cloudy
8:35 PM 32.0 °F 23.0 °F 28.4 °F 87% 29.86 in 10.0 mi West 11.5 mph 18.4 mph N/A   Mostly Cloudy
8:55 PM 32.0 °F 23.6 °F 30.2 °F 93% 29.86 in 10.0 mi WSW 10.4 mph - N/A   Mostly Cloudy
9:15 PM 32.0 °F 24.8 °F 28.4 °F 87% 29.86 in 10.0 mi WSW 8.1 mph - N/A   Scattered Clouds
9:35 PM 32.0 °F 22.1 °F 28.4 °F 87% 29.86 in 10.0 mi WSW 13.8 mph 19.6 mph N/A   Mostly Cloudy
9:55 PM 32.0 °F 24.2 °F 30.2 °F 93% 29.86 in 10.0 mi WSW 9.2 mph 18.4 mph N/A   Overcast
10:15 PM 32.0 °F 23.6 °F 28.4 °F 87% 29.87 in 10.0 mi West 10.4 mph - N/A   Mostly Cloudy
10:35 PM 32.0 °F 25.6 °F 30.2 °F 93% 29.87 in 10.0 mi WSW 6.9 mph - N/A   Overcast
10:55 PM 32.0 °F 27.5 °F 30.2 °F 93% 29.87 in 10.0 mi SW 4.6 mph - N/A   Overcast
11:15 PM 32.0 °F 27.5 °F 30.2 °F 93% 29.87 in 10.0 mi WSW 4.6 mph - N/A   Overcast
11:35 PM 32.0 °F 26.4 °F 30.2 °F 93% 29.87 in 10.0 mi WSW 5.8 mph - N/A   Overcast
11:55 PM 32.0 °F 26.4 °F 30.2 °F 93% 29.87 in 10.0 mi SSW 5.8 mph - N/A   Overcast